Regional Weather Roundup
Issued by NWS

Home | Current Version | Previous Version | Graphics & Text | Print | Product List | Glossary On
Versions: 1 2 3 4 5 6 7 8 9 10 11 12 13 14 15 16 17 18 19 20 21 22 23 24 25 26 27 28 29 30 31 32 33 34 35 36 37 38 39 40 41 42 43 44 45 46 47 48 49
000
ASUS45 KSLC 070810
RWRUT

UTAH REGIONAL WEATHER ROUNDUP
NATIONAL WEATHER SERVICE SALT LAKE CITY UT
100 AM MST SUN FEB 07 2016

UTZ001>011-023>025-070900-

NORTHERN UTAH

CITY           SKY/WX    TMP DP  RH WIND       PRES   REMARKS
BRIGHAM CITY   CLOUDY    22  18  87 CALM      30.51S
HILL AFB       CLOUDY    28  16  61 SE5       30.48S WCI  23
LOGAN          CLOUDY    24  22  91 CALM      30.46F
OGDEN          CLOUDY    28  21  75 S7        30.49S WCI  21
PROVO AIRPORT  MOCLDY    14  10  85 S6        30.51S WCI   5
SALT LAKE CITY MOCLDY    28  21  75 SE3       30.50S
VERNAL         CLOUDY    11   7  84 CALM      30.45F FOG
WENDOVER       PTCLDY    25  21  86 CALM      30.50F
HEBER CITY     MOCLDY    16  12  86 CALM      30.46F
WEST JORDAN    PTCLDY    25  21  86 CALM      30.50R

$$

UTZ012>022-026-027-070900-

SOUTHERN/CENTRAL UTAH

CITY           SKY/WX    TMP DP  RH WIND       PRES   REMARKS
BLANDING       PTCLDY    20  14  78 N3        30.49S
BRYCE CANYON   PTCLDY    12   6  77 W12       30.44S WCI  -2
CEDAR CITY     PTCLDY    12   9  87 E6        30.44R WCI   3
DELTA          CLOUDY     4   2  88 CALM      30.51R VSB<1/4
HANKSVILLE     CLOUDY    18  18 100 W3        30.56F
MILFORD        MOCLDY     0  -3  87 NW3       30.48R
MOAB/CYNLANDS  MOCLDY     7   4  87 CALM      30.51F FOG
PRICE          PTCLDY    12   7  80 NE3       30.44S
ST GEORGE      PTSUNNY   36  23  60 CALM      30.43S
KANAB          CLEAR     34  27  75 NW14      30.44F WCI  24

$$

REGIONAL REPORTS     COLORADO/ARIZONA

CITY           SKY/WX    TMP DP  RH WIND       PRES   REMARKS
CRAIG, CO      CLOUDY    11   5  77 CALM      30.40F
GRAND JUNCTION CLOUDY    11   9  92 CALM      30.50F
RIFLE          CLOUDY    15   8  73 CALM      30.48S
MONTROSE       CLOUDY    10   4  76 SE3       30.50R
CORTEZ         CLOUDY    13   9  84 E6        30.42F WCI   4
PAGE, AZ       CLEAR     28  22  78 SE5       30.45F WCI  23
GRAND CANYON   CLEAR     22  15  75 NE5       30.41F WCI  16
KINGMAN        CLEAR     34  24  67 E3        30.32F
FLAGSTAFF      CLEAR     17  12  80 CALM      30.41F

$$

REGIONAL REPORTS    NEVADA/IDAHO/WYOMING

CITY           SKY/WX    TMP DP  RH WIND       PRES   REMARKS
LAS VEGAS, NV  CLEAR     46  26  45 S3        30.31S
ELY            PTCLDY    10   4  76 S16       30.47S WCI  -7
ELKO           CLEAR     14   9  80 E6        30.50S WCI   5
POCATELLO, ID  CLOUDY    34  25  69 S9        30.43R WCI  27
BURLEY         MOCLDY    33  27  78 S6        30.43R WCI  28
EVANSTON, WY   CLOUDY    26  14  60 SW20      30.39F WCI  12
ROCK SPRINGS   CLOUDY    28  15  58 W21       30.31F WCI  15

$$



USA.gov is the U.S. government's official web portal to all federal, state and local government web resources and services.